Dewpoint
24 24 24 23 23 23 23 23 22 23 22 22 22 21 21 22 21 21 21 20 20 19 18 16 14 12 12 13 13 13 13 13 12 12 11 10 9 8 7 5 4 3 3 3 3 4 5 5 4 5 3 5 4 4 1 1 0 2 3 0 1 2 4 2 -1 -1 -7 -14 -12 -11 -11 -11 -11 -9 -10 -8 -6 -7 3 -0 -2 -3 -4 -3 -3
27 26 25 25 24 23 23 23 23 23 22 22 22 22 22 22 22 22 21 21 20 20 19 18 16 14 12 12 12 12 12 12 12 12 12 11 10 9 7 6 5 4 3 3 3 4 5 9 7 6 8 7 7 6 5 3 4 2 4 5 6 4 3 1 0 -0 -3 -11 -12 -10 -10 -9 -11 -8 -9 -9 -8 -4 -7 -7 -7 -7 -5 -5 -4
26 26 26 26 26 25 24 24 24 24 24 23 23 23 23 23 23 22 22 22 22 21 20 20 18 15 13 13 12 12 12 12 12 13 12 12 11 10 9 7 6 5 4 4 5 7 7 8 8 9 8 8 8 7 8 6 6 4 7 7 4 3 3 3 1 0 -1 -6 -9 -10 -9 -9 -9 -8 -8 -9 -6 -7 -8 -6 -6 -6 -4 -6 -4
25 25 25 25 25 25 25 25 24 24 24 25 24 24 24 24 24 23 23 23 23 22 21 20 19 16 14 13 12 12 12 12 13 12 13 12 11 11 10 9 8 7 7 6 7 7 9 8 8 9 9 9 9 7 7 7 6 5 6 9 8 7 2 1 2 2 -0 -3 -7 -9 -8 -8 -7 -7 -8 -6 -6 -6 -6 -2 -4 -3 -4 -4 -3
20 22 23 24 23 23 24 23 23 23 23 23 24 24 24 24 24 24 24 23 23 22 21 20 19 16 14 13 12 11 12 12 13 13 13 12 12 11 11 10 9 9 9 8 11 10 9 9 8 10 10 8 9 8 8 8 8 7 6 6 5 7 5 4 3 2 0 -2 -5 -7 -6 -7 -7 -7 -5 -6 -5 -5 -4 -3 -2 -2 -2 -3 -4
19 19 20 20 20 20 21 21 21 21 21 21 21 21 22 22 22 22 22 22 22 21 21 19 18 16 14 13 12 11 11 12 12 13 12 12 12 12 13 12 12 10 9 9 9 10 10 10 9 10 10 9 8 8 9 8 8 8 8 7 7 7 6 5 2 1 1 -2 -4 -6 -6 -7 -7 -6 -5 -5 -6 -5 -3 -2 -2 -2 -3 -2 -2
20 21 21 21 21 19 19 19 19 20 20 20 20 20 20 19 19 19 20 20 20 19 18 18 16 16 14 12 11 12 12 12 12 12 12 12 13 15 14 13 11 13 12 11 11 12 12 11 11 10 10 10 9 9 9 9 8 8 8 8 8 7 6 5 4 3 1 -0 -3 -4 -5 -5 -6 -7 -5 -5 -5 -5 -6 -6 -5 -6 -5 -2 -3
19 19 19 19 19 18 17 17 16 16 15 14 14 14 14 14 14 15 16 16 16 15 15 14 13 13 12 11 11 10 10 10 11 11 13 14 15 15 14 14 13 13 13 13 13 13 13 12 12 12 11 11 11 10 10 8 8 8 8 8 8 7 5 4 4 3 1 -1 -3 -4 -5 -5 -6 -6 -6 -6 -7 -6 -5 -6 -7 -6 -5 -5 -3
18 18 18 18 17 16 16 15 15 14 13 13 12 11 11 11 11 11 11 10 11 9 9 9 8 8 7 8 7 8 10 11 12 13 15 15 15 15 15 14 14 14 13 13 13 13 13 13 13 12 12 14 14 12 12 11 9 7 8 8 8 7 5 4 3 2 -0 -2 -3 -5 -5 -5 -6 -6 -6 -6 -6 -7 -7 -6 -6 -6 -6 -5 -4
17 17 16 15 14 13 12 11 11 11 11 11 11 10 10 10 10 10 10 10 10 11 9 9 8 8 7 8 9 10 10 11 15 18 17 15 16 15 15 15 14 14 14 13 13 13 13 13 13 15 15 15 15 14 14 13 12 10 8 8 7 6 5 3 1 -0 -0 -2 -3 -4 -5 -6 -6 -6 -7 -7 -6 -7 -7 -7 -7 -7 -9 -7 -6
15 14 13 11 10 10 10 9 9 9 9 9 8 9 10 9 9 9 9 9 9 11 10 12 10 11 11 11 11 11 13 14 17 17 18 18 17 16 15 15 15 14 14 13 13 12 13 13 12 14 15 15 14 14 14 14 13 13 12 11 9 7 5 3 1 -1 -2 -2 -3 -4 -5 -6 -6 -6 -7 -7 -7 -7 -7 -7 -7 -8 -8 -9 -10
10 8 7 6 6 7 8 8 8 9 9 8 8 9 9 9 8 8 9 9 9 8 10 9 9 9 10 10 11 12 13 17 17 18 19 19 19 16 16 15 15 14 14 14 13 13 12 12 12 12 13 13 12 13 14 14 14 14 13 13 12 11 10 6 2 -0 -2 -3 -4 -5 -6 -6 -6 -5 -5 -6 -6 -6 -6 -7 -7 -7 -8 -8 -8
6 6 5 6 7 8 8 8 8 7 7 8 9 9 9 9 8 8 8 7 7 8 8 9 7 8 8 9 10 12 12 18 18 19 20 21 22 20 15 16 14 14 14 14 14 13 12 11 11 10 11 14 13 12 12 12 14 14 14 13 13 12 14 15 12 4 1 -2 -3 -4 -5 -6 -6 -5 -5 -6 -6 -7 -8 -7 -7 -7 -7 -8 -8
6 6 7 8 8 8 8 8 8 6 6 7 9 8 7 6 5 6 7 8 7 7 7 9 8 8 9 9 10 10 11 17 19 20 21 22 22 22 18 16 15 15 14 14 14 13 12 11 10 9 9 10 11 11 11 10 10 11 11 11 10 10 11 12 12 11 5 -1 -3 -4 -4 -5 -5 -4 -3 0 -6 -7 -7 -8 -7 -7 -7 -7 -7
10 9 9 9 8 8 9 8 8 7 6 6 7 7 6 6 7 6 7 7 7 7 7 6 8 9 8 8 9 9 9 17 17 18 19 19 20 20 19 17 16 15 15 14 14 13 13 12 10 9 8 7 8 9 9 8 7 7 7 7 7 7 6 6 7 8 8 1 -2 -3 -2 -2 -3 -3 -3 -2 -3 -3 -4 -5 -5 -6 -6 -7 -7
9 8 8 7 8 7 8 8 8 6 5 6 6 5 5 3 3 4 5 5 5 6 5 6 6 6 6 7 7 6 5 17 17 18 18 18 18 18 15 16 15 14 13 12 11 10 10 10 9 8 7 5 7 10 10 6 5 4 3 3 2 3 3 6 11 11 7 5 2 0 -0 -1 6 -1 -1 -2 -2 -2 -2 -2 -6 -9 -7 -7 -7
8 8 7 6 7 7 7 7 7 6 5 5 5 5 4 4 3 4 4 4 4 3 2 3 3 3 3 3 3 2 3 10 14 15 16 16 17 14 12 12 12 11 11 11 10 10 10 9 9 8 7 6 7 13 15 10 4 3 2 -0 -1 -1 0 0 10 15 15 15 14 14 14 14 15 15 15 15 6 1 -3 -3 -4 -4 -5 -6 -6
8 7 6 6 6 7 6 6 5 5 6 5 4 5 5 4 4 4 4 3 4 1 -1 1 1 1 0 -1 -0 1 1 6 10 11 12 12 12 10 10 9 9 10 9 9 9 9 9 11 10 7 6 5 10 14 16 14 7 2 0 -1 -2 -2 -2 -1 -2 3 15 16 15 14 14 14 16 16 17 17 16 14 0 -3 -2 -2 -4 -4 -5
8 8 7 6 7 7 5 3 3 2 2 3 2 2 3 2 2 1 0 1 1 0 1 -1 -2 -1 -2 -2 5 0 -1 1 9 10 11 11 11 5 6 3 3 5 4 4 4 5 6 9 11 9 6 6 14 16 17 14 11 5 0 -1 -2 -3 -2 -2 -2 -3 -2 -0 2 4 5 8 8 8 9 11 13 13 10 4 2 -0 -2 -3 -3
7 8 7 7 7 6 4 2 2 1 1 -0 1 0 -0 1 1 -2 -1 -0 -2 -1 -1 -1 -2 -3 -3 -3 -4 -4 -4 -3 1 11 11 11 12 8 -0 -3 -3 -2 -4 -2 -2 -0 1 2 6 11 14 15 15 16 16 16 12 10 5 2 0 -1 1 1 0 0 -0 -0 -0 0 1 2 2 2 2 3 4 3 4 3 4 3 1 -1 -1
7 6 6 5 4 3 2 1 0 1 2 0 -0 -2 -2 -1 -1 -3 -3 -3 -3 -3 -3 -4 -4 -4 -5 -4 -5 -6 -6 -4 -3 9 10 10 11 10 1 -1 -3 -3 -4 -2 -4 -3 -2 -1 -0 7 11 13 14 15 16 16 14 10 9 8 7 8 10 6 6 7 4 2 1 1 0 0 0 1 1 1 1 1 1 1 1 3 2 0 -1
4 3 4 4 3 1 1 -1 -1 -2 -2 -3 -4 -4 -4 -4 -4 -4 -5 -4 -4 -5 -7 -6 -6 -5 -5 -6 -7 -8 -8 -3 -4 6 8 9 9 10 6 0 5 2 3 2 0 -2 -1 -0 -0 4 9 12 12 13 14 15 14 9 8 12 14 14 10 9 8 7 6 6 4 3 1 1 0 -0 -0 -0 -0 0 0 0 -0 -1 1 2 1
2 2 1 1 -0 -1 -2 -3 -4 -3 -4 -4 -5 -5 -5 -6 -5 -5 -4 -5 -6 -7 -8 -8 -9 -7 -7 -5 -7 -9 -10 -11 -3 -3 2 7 7 8 8 7 9 7 6 6 6 6 5 4 4 6 11 11 12 12 13 14 12 10 13 12 13 12 11 8 7 7 7 7 6 5 4 3 2 1 0 -0 -0 -0 -0 0 -0 -1 -2 -1 1
1 0 -0 -1 -2 -3 -4 -5 -6 -5 -4 -4 -4 -5 -5 -7 -6 -6 -7 -7 -8 -6 -8 -11 -11 -10 -9 -8 -8 -9 -12 -14 -6 -3 -3 5 6 7 8 8 9 7 7 6 6 6 5 5 6 11 11 12 13 14 13 11 9 12 13 13 9 7 4 4 3 2 3 2 1 2 3 4 4 3 2 1 0 -1 -0 -1 -1 -1 -2 -2 -2
-1 -2 -2 -2 -3 -3 -3 -4 -5 -6 -6 -5 -4 -5 -5 -6 -5 -8 -8 -9 -10 -10 -9 -12 -12 -13 -13 -10 -9 -9 -11 -14 -13 -9 -4 -2 6 7 7 7 6 5 3 3 3 3 5 10 9 10 11 11 11 10 5 4 7 6 5 5 5 3 2 1 0 -0 -0 -0 -0 0 0 1 2 3 3 1 1 1 -1 -1 -1 -1 -1 -2 -2
-3 -3 -3 -3 -4 -4 -5 -5 -5 -5 -7 -8 -8 -8 -7 -8 -8 -8 -11 -12 -13 -13 -11 -12 -13 -14 -13 -14 -13 -10 -11 -16 -13 -14 -8 -7 -5 2 6 3 2 2 1 0 1 3 8 9 8 5 2 -1 -1 -4 -4 -2 0 1 1 1 -5 -7 -6 -5 -5 -5 -4 -4 -3 -3 -2 -1 -0 1 1 1 1 -1 -2 -2 -2 -2 -3 -3 -3
-5 -5 -5 -4 -5 -6 -7 -6 -6 -6 -8 -8 -9 -10 -11 -10 -10 -9 -12 -14 -14 -13 -13 -12 -13 -15 -15 -13 -14 -13 -12 -13 -12 -13 -13 -17 -14 -11 -9 -9 -4 -2 -3 -5 -1 -3 -3 -2 -3 -1 -0 -0 -0 0 1 -0 -3 -7 -10 -11 -11 -11 -9 -8 -6 -5 -5 -6 -6 -6 -5 -4 -5 -4 -5 -3 -2 -2 -4 -3 -3 -2 -2 -2 -3
-6 -7 -6 -6 -6 -7 -8 -7 -7 -8 -8 -11 -11 -10 -11 -12 -11 -10 -12 -13 -14 -13 -14 -14 -14 -14 -15 -14 -14 -14 -11 -11 -12 -12 -10 -13 -11 -11 -12 -11 -11 -12 -12 -10 -10 -9 -9 -3 -5 -10 -12 -13 -12 -15 -13 -13 -10 -9 -10 -13 -13 -12 -6 -3 -2 -10 -10 -10 -9 -11 -11 -12 -11 -9 -9 -8 -6 -5 -6 -4 -3 -3 -2 -2 -4
-7 -8 -8 -7 -8 -7 -8 -9 -9 -9 -10 -10 -13 -13 -13 -12 -12 -11 -14 -13 -13 -13 -13 -10 -10 -12 -11 -10 -10 -9 -11 -8 -7 -1 -5 -1 -3 -2 -2 -4 -7 -9 -6 -4 -5 -9 -11 -13 -15 -11 -15 -13 -13 -13 -12 -12 -10 -10 -13 -14 -15 -16 -15 -15 -13 -12 -11 -13 -12 -12 -11 -13 -11 -11 -9 -10 -9 -8 -6 -6 -4 -4 -4 -3 -3
-10 -10 -10 -9 -9 -9 -9 -10 -12 -10 -11 -11 -11 -12 -9 -3 -2 -8 -8 -2 -1 1 3 -4 -3 -3 -3 -3 -3 -3 -3 -2 6 9 9 9 6 6 7 6 6 2 1 1 1 -5 -6 -8 -9 -11 -11 -14 -13 -13 -13 -14 -14 -13 -13 -8 -11 -14 -14 -14 -14 -14 -13 -12 -12 -12 -12 -12 -12 -12 -12 -10 -10 -9 -7 -4 -7 -6 -5 -5 -5
-10 -11 -10 -11 -10 -9 -11 -11 -11 -13 -12 -13 -13 -12 -12 -12 -2 -0 -3 -3 -3 2 6 7 8 5 4 3 3 5 5 3 5 6 7 7 9 5 5 5 4 3 3 2 2 1 -2 -3 -4 -7 -9 -11 -12 -13 -14 -15 -14 -14 -14 -15 -16 -14 -12 -13 -13 -11 -11 -11 -10 -11 -11 -11 -10 -11 -11 -10 -10 -10 -11 -8 -7 -7 -6 -6 -7
-11 -11 -11 -12 -11 -11 -13 -13 -13 -13 -13 -16 -15 -15 -14 -13 -12 -10 -3 -3 -0 4 5 7 7 6 4 3 2 1 1 1 0 5 6 8 1 -1 1 7 9 7 3 3 -3 -8 -10 -11 -11 -11 -11 -11 -10 -10 -11 -13 -13 -14 -15 -15 -15 -13 -15 -14 -13 -16 -14 -14 -13 -12 -12 -12 -11 -10 -10 -9 -8 -9 -9 -9 -9 -9 -8 -7 -7
-12 -12 -12 -12 -12 -12 -13 -13 -14 -15 -16 -15 -16 -18 -18 -17 -15 -14 -12 -4 -1 -2 2 3 3 4 4 5 5 5 1 0 0 5 2 -2 -2 -2 2 6 4 -3 -4 -11 -16 -16 -17 -16 -16 -15 -15 -15 -15 -15 -15 -15 -16 -16 -16 -16 -16 -15 -16 -15 -14 -15 -14 -14 -14 -15 -14 -14 -13 -12 -11 -11 -12 -12 -11 -10 -8 -8 -8 -9 -8
-13 -13 -13 -13 -13 -13 -15 -17 -17 -18 -19 -20 -18 -17 -17 -18 -18 -19 -16 -15 -13 -10 -8 -7 -6 -6 -6 -4 1 1 2 3 -1 -6 -7 -0 6 4 2 -2 -1 -6 -10 -21 -24 -21 -20 -20 -18 -18 -19 -18 -18 -18 -18 -18 -17 -18 -17 -17 -17 -19 -19 -18 -17 -16 -17 -16 -15 -14 -14 -14 -13 -15 -15 -15 -13 -13 -13 -13 -13 -13 -12 -11 -10
-13 -12 -12 -12 -13 -13 -14 -16 -17 -17 -18 -19 -19 -19 -20 -20 -19 -19 -20 -20 -18 -17 -15 -14 -11 -9 -9 -9 -8 -7 -7 -8 -8 -8 -4 4 3 -4 -3 -15 -19 -22 -20 -22 -20 -22 -21 -21 -22 -22 -21 -21 -21 -19 -20 -20 -20 -20 -20 -20 -21 -21 -20 -20 -19 -19 -19 -20 -18 -18 -18 -17 -18 -16 -16 -17 -17 -17 -17 -16 -15 -14 -14 -14 -14
-13 -13 -14 -14 -15 -15 -15 -15 -17 -17 -18 -18 -20 -20 -18 -18 -19 -20 -19 -20 -20 -19 -18 -17 -16 -11 -10 -9 -9 -9 -9 -9 -9 -5 2 2 -4 -9 -18 -24 -24 -25 -23 -24 -24 -22 -20 -21 -21 -23 -24 -24 -22 -22 -25 -23 -23 -24 -26 -23 -20 -21 -21 -22 -20 -20 -20 -22 -21 -20 -19 -22 -21 -19 -21 -20 -19 -18 -18 -18 -17 -17 -16 -16 -15
-12 -13 -14 -16 -17 -17 -17 -18 -20 -20 -16 -17 -19 -21 -20 -20 -19 -21 -21 -22 -22 -22 -21 -20 -19 -18 -14 -15 -13 -10 -10 -10 -6 -3 -3 -6 -8 -17 -24 -24 -26 -25 -23 -25 -23 -22 -23 -26 -25 -26 -26 -24 -24 -26 -25 -24 -25 -24 -18 -21 -24 -25 -26 -25 -23 -20 -22 -24 -26 -26 -25 -26 -26 -26 -24 -25 -23 -23 -23 -21 -21 -20 -19 -19 -18
-14 -14 -15 -16 -18 -20 -21 -21 -21 -16 -18 -20 -21 -22 -22 -22 -22 -21 -21 -21 -21 -20 -20 -22 -15 -21 -20 -19 -13 -15 -16 -11 -11 -12 -11 -11 -20 -27 -27 -23 -23 -25 -25 -26 -25 -25 -26 -29 -30 -29 -29 -30 -29 -29 -29 -29 -28 -27 -26 -26 -25 -25 -19 -22 -22 -29 -26 -28 -30 -32 -27 -27 -30 -29 -24 -25 -25 -26 -25 -23 -25 -26 -23 -20 -21
-16 -15 -13 -13 -13 -19 -20 -19 -19 -20 -21 -20 -21 -20 -20 -21 -21 -22 -23 -23 -23 -23 -22 -23 -24 -23 -22 -22 -24 -19 -19 -24 -25 -23 -24 -26 -27 -28 -28 -28 -27 -27 -27 -28 -26 -23 -27 -28 -27 -25 -27 -29 -27 -29 -30 -30 -30 -30 -31 -30 -33 -36 -35 -36 -35 -35 -34 -34 -34 -37 -37 -35 -37 -37 -30 -29 -29 -29 -29 -29 -27 -26 -27 -26 -26
-17 -20 -18 -14 -16 -17 -18 -18 -19 -20 -20 -21 -23 -23 -22 -21 -22 -22 -23 -24 -23 -23 -23 -23 -22 -23 -21 -24 -23 -22 -20 -21 -22 -23 -25 -26 -26 -27 -29 -27 -28 -27 -26 -28 -29 -29 -28 -28 -29 -28 -29 -30 -31 -33 -34 -33 -35 -35 -32 -34 -35 -34 -36 -39 -39 -40 -38 -38 -39 -39 -41 -40 -40 -36 -39 -36 -33 -32 -32 -31 -27 -26 -27 -27 -26
-20 -21 -17 -15 -15 -18 -19 -20 -21 -22 -22 -22 -22 -22 -23 -21 -20 -20 -22 -22 -22 -23 -23 -23 -24 -24 -22 -16 -14 -15 -18 -22 -23 -24 -25 -25 -26 -27 -29 -30 -28 -28 -27 -26 -27 -29 -30 -29 -30 -31 -33 -35 -36 -34 -34 -36 -36 -31 -36 -32 -31 -31 -35 -41 -44 -44 -44 -40 -40 -40 -39 -40 -37 -36 -34 -33 -23 -25 -29 -27 -28 -29 -27 -27 -27
-22 -22 -21 -20 -19 -20 -21 -20 -21 -18 -20 -20 -22 -23 -21 -21 -21 -22 -21 -21 -21 -22 -23 -24 -26 -25 -20 -16 -16 -15 -18 -23 -24 -24 -26 -26 -27 -28 -27 -28 -31 -30 -31 -32 -32 -30 -31 -33 -34 -34 -35 -32 -32 -31 -32 -34 -35 -43 -39 -34 -37 -34 -33 -37 -38 -39 -40 -42 -42 -41 -40 -38 -36 -34 -33 -20 -32 -36 -34 -32 -34 -30 -31 -30 -29
-21 -22 -22 -20 -21 -22 -21 -21 -22 -24 -24 -24 -24 -19 -19 -21 -22 -21 -22 -22 -23 -23 -24 -25 -26 -26 -24 -18 -18 -18 -23 -28 -22 -25 -26 -27 -28 -27 -28 -29 -30 -33 -33 -34 -35 -34 -33 -33 -35 -36 -33 -34 -37 -35 -34 -37 -39 -41 -43 -38 -37 -38 -37 -36 -36 -36 -38 -39 -40 -37 -37 -37 -36 -36 -38 -33 -36 -38 -37 -35 -31 -33 -32 -33 -32
-21 -20 -20 -20 -21 -22 -21 -23 -24 -23 -24 -21 -20 -20 -20 -21 -23 -24 -25 -26 -25 -25 -25 -26 -26 -26 -27 -24 -23 -26 -29 -29 -30 -31 -29 -27 -27 -27 -30 -32 -36 -36 -36 -34 -35 -39 -39 -38 -37 -36 -35 -35 -40 -46 -43 -43 -42 -41 -40 -38 -35 -33 -37 -36 -36 -37 -37 -37 -38 -37 -37 -38 -35 -36 -33 -30 -38 -36 -36 -36 -34 -34 -34 -37 -34
-25 -23 -22 -23 -24 -24 -24 -24 -24 -24 -22 -22 -24 -24 -22 -24 -25 -25 -25 -26 -25 -25 -26 -26 -26 -26 -26 -28 -29 -29 -30 -31 -27 -26 -27 -29 -30 -30 -32 -36 -37 -36 -37 -35 -39 -43 -41 -41 -43 -40 -36 -40 -46 -44 -44 -44 -44 -43 -41 -40 -38 -37 -36 -36 -37 -36 -39 -39 -37 -37 -37 -38 -39 -41 -40 -39 -35 -37 -33 -35 -35 -28 -32 -34 -34
-25 -24 -22 -23 -23 -23 -24 -26 -23 -25 -25 -25 -26 -28 -27 -28 -29 -27 -26 -26 -25 -26 -27 -27 -28 -28 -27 -29 -30 -28 -29 -31 -31 -30 -27 -29 -30 -32 -35 -37 -40 -40 -39 -39 -41 -41 -42 -46 -44 -40 -38 -41 -43 -47 -47 -44 -42 -41 -42 -42 -38 -36 -37 -38 -39 -38 -38 -39 -39 -39 -40 -39 -39 -38 -32 -38 -38 -36 -40 -40 -37 -34 -36 -35 -34
-25 -24 -23 -23 -24 -23 -24 -24 -25 -26 -27 -26 -25 -26 -26 -27 -28 -26 -24 -25 -26 -25 -27 -29 -30 -30 -30 -30 -30 -30 -29 -28 -29 -30 -30 -30 -31 -35 -40 -38 -38 -39 -40 -40 -40 -41 -37 -35 -41 -42 -40 -41 -45 -46 -44 -44 -43 -43 -38 -40 -41 -40 -39 -39 -38 -38 -38 -41 -41 -43 -42 -37 -36 -34 -33 -31 -33 -33 -32 -35 -34 -35 -35 -34 -35
-26 -25 -25 -24 -25 -26 -27 -27 -26 -22 -25 -25 -25 -25 -25 -26 -27 -27 -28 -28 -29 -29 -30 -31 -31 -32 -30 -31 -30 -30 -29 -29 -29 -28 -30 -31 -34 -40 -41 -37 -37 -38 -40 -38 -38 -37 -38 -41 -43 -43 -39 -37 -35 -36 -40 -42 -43 -42 -42 -42 -42 -44 -41 -32 -42 -44 -46 -44 -41 -40 -39 -39 -38 -38 -34 -37 -38 -34 -34 -36 -34 -34 -34 -34 -33
-25 -25 -25 -26 -26 -26 -27 -27 -25 -27 -27 -27 -26 -27 -27 -28 -28 -29 -29 -30 -30 -30 -32 -31 -33 -32 -32 -31 -30 -29 -29 -27 -30 -33 -33 -35 -37 -42 -39 -38 -34 -41 -39 -39 -42 -41 -41 -44 -39 -42 -46 -45 -45 -42 -40 -38 -37 -40 -39 -43 -42 -28 -26 -27 -30 -31 -29 -41 -43 -44 -43 -42 -40 -36 -33 -32 -33 -34 -34 -35 -35 -34 -34 -34 -34
-25 -24 -25 -25 -25 -26 -26 -26 -27 -29 -28 -28 -29 -29 -29 -29 -30 -30 -30 -31 -32 -31 -33 -32 -31 -32 -33 -32 -30 -30 -30 -30 -31 -32 -34 -39 -38 -39 -39 -38 -38 -40 -40 -40 -42 -44 -46 -49 -50 -48 -42 -45 -46 -45 -43 -41 -41 -41 -42 -44 -30 -28 -27 -26 -26 -26 -33 -42 -38 -41 -39 -38 -40 -39 -40 -40 -38 -35 -36 -35 -35 -33 -34 -36 -36
-24 -25 -25 -26 -26 -27 -28 -29 -30 -30 -31 -30 -31 -31 -30 -31 -31 -31 -31 -32 -32 -33 -32 -33 -34 -34 -33 -33 -30 -31 -31 -31 -33 -34 -36 -36 -38 -38 -37 -38 -38 -38 -42 -45 -45 -48 -50 -50 -48 -45 -44 -36 -37 -39 -40 -42 -44 -44 -38 -31 -29 -28 -28 -27 -31 -27 -26 -29 -46 -42 -36 -34 -35 -36 -37 -38 -43 -41 -35 -34 -35 -36 -36 -36 -35